SL-16 DEB, 22336

Orbit data source: Space-Track

SL-16 DEB, 22336 is space debris in LEO originally from a launch on Fri, 25 Dec 1992 UTC launched from the Tyuratam Missile And Space Complex (TTMTR). Debris objects in space refer to the collection of defunct objects orbiting the Earth. Examples of debris include non-operational satellites, rocket bodies, and fragments generated from explosions, collisions, or faulty payload assembly.

Loading next visibility...
Identifier
22336, 1992-093Z
Orbit
LEO
Country
Flag of CISCIS
Related business
Manufacturer
Unknown
Mission
Spacecraft
Bus & Motor
Unknown
Mass
Unknown
Launch date (UTC)
1992-12-25 (33 years ago)
Launch vehicle
Unknown
Launch site
Tyuratam Missile And Space Complex (TTMTR)
Object type
Payload
Rocket body
Debris
Shape & HBR
Unknown shape, 0.4 m
Radar Cross Section
Medium (>0.1 m² and <1 m²)

Expand to show TLE details & history
Last TLE update: 1 day ago

TLE from 1 day ago
0 SL-16 DEB
1 22336U 92093Z   25296.45446264  .00000653  00000-0  48552-3 0  9999
2 22336  71.1338 337.7273 0116333   4.8270 355.3934 13.95426809664534
Epoch: 2025-10-23T10:54Z
TLE epoch observation values (Epoch: 2025-10-23T10:54:25.572Z)
Latitude
-0.00005°
Longitude
142.00725°
Altitude
827.548 km
Speed
7.482 km/s
True Right ascension
22h 30m 54s
True Declination
0° 00' 00"
Sunlit
Object was in full shadow at epoch
Visualization orbit readout
Latitude
Unknown
Longitude
Unknown
Altitude
Unknown
Speed
Unknown
Apparent Right ascension
Unknown
Apparent Declination
Unknown
Sunlit
N/A
Visualization observer readout
Local Sidereal Time
12:53:34
Azimuth
Unknown
Elevation
Unknown
Doppler factor
Unknown
Orbital elements
Apogee altitude
992.362 km
Perigee altitude
822.848 km
Semi-major axis
7,285.742 km
Eccentricity
0.01163
Inclination
71.1338°
RAAN
337.7273°
Arg. of periapsis
4.827°
True anomaly
355.28476°
Mean anomaly
355.3934°
Eccentric anomaly
355.33924°
Mean motion
3.49006 °/min
Orbital period
103.15 mins
BSTAR
0.00048552
Loading maneuver chart data...
Computing Atmospheric mass density...

Documentation

Showing up to 5 results
|